Regional Weather Roundup
Issued by NWS

Home | Current Version | Previous Version | Text Only | Print | Product List | Glossary On
Versions: 1 2 3 4 5 6 7 8 9 10 11 12 13 14 15 16 17 18 19 20 21 22 23 24 25 26 27 28 29 30 31 32 33 34 35 36 37 38 39 40 41 42 43 44 45 46 47 48 49 50
000
ASUS43 KLMK 310602
RWRKY
KENTUCKY REGIONAL WEATHER ROUNDUP
NATIONAL WEATHER SERVICE LOUISVILLE KY
200 AM EDT SAT JUL 31 2021

NOTE "FAIR" INDICATES FEW OR NO CLOUDS BELOW 12,000 FEET
WITH NO SIGNIFICANT WEATHER AND/OR OBSTRUCTIONS TO VISIBILITY.

KYZ001>023-026-027-061>063-070>075-310700-
WESTERN AND SOUTH CENTRAL KENTUCKY

CITY           SKY/WX    TMP DP  RH WIND       PRES   REMARKS
PADUCAH        MOCLDY    75  67  76 NE5       30.04F
HENDERSON      PTCLDY    67  66  97 CALM      30.06S
OWENSBORO      MOCLDY    72  66  81 CALM      30.04F
HOPKINSVILLE   MOCLDY    71  71  99 N3        30.02F
BOWLING GREEN  PTCLDY    72  68  87 CALM      30.03F
GLASGOW        MOCLDY    66  66 100 CALM      30.04F FOG
$$

KYZ024-025-028>034-038-045-046-053-310700-
NORTH CENTRAL KENTUCKY

CITY           SKY/WX    TMP DP  RH WIND       PRES   REMARKS
LOUISVILLE/SDF PTCLDY    72  62  71 N7        30.04F
LOUISVILLE/LOU PTCLDY    70  32  24 CALM      30.04F
FORT KNOX      PTCLDY    64  63  99 NW3       30.03F
$$

KYZ035>037-039>044-047>052-055>060-089>105-310700-
NORTHEAST KENTUCKY

CITY           SKY/WX    TMP DP  RH WIND       PRES   REMARKS
LEXINGTON      PTCLDY    68  62  81 NE3       30.04F
COVINGTON      MOCLDY    70  59  68 N6        30.05F
FRANKFORT      PTCLDY    67  63  87 CALM      30.04F
$$

KYZ054-064>069-076>088-106>120-310700-
SOUTHEAST KENTUCKY

CITY           SKY/WX    TMP DP  RH WIND       PRES   REMARKS
JACKSON        CLEAR     70  63  78 CALM      30.05F
LONDON         CLEAR     68  67  96 CALM      30.05F FOG
SOMERSET       NOT AVBL
MIDDLESBORO    CLEAR     69  69 100 CALM      30.05F
MONTICELLO     FOG       66  66 100 CALM      30.07S VSB 1/4
$$




USA.gov is the U.S. government's official web portal to all federal, state and local government web resources and services.